Location: Betra
(48.4113°N, 8.6634°E)
Time: 14:05:21
(UTC+00:00)

Cosmos 1850 Rocket - Pass Details

Date: 17 August 2024
Orbit: 751 x 783 km, 74.0° (Epoch: 17 September)

Event Time Altitude Azimuth Distance (km) Brightness Sun altitude
Rises 19:30:40 0° 330° (NNW) 3,267 8.5 -9.1°
Reaches altitude 10° 19:33:13 10° 321° (NW) 2,339 7.8 -9.4°
Maximum altitude 19:37:58 34° 258° (WSW) 1,264 5.6 -10.1°
Drops below altitude 10° 19:42:43 10° 195° (SSW) 2,334 6.3 -10.8°
Sets 19:45:16 0° 186° (S) 3,258 7.0 -11.1°
